Regional Weather Roundup
Issued by NWS

Home | Current Version | Previous Version | Text Only | Print | Product List | Glossary Off
Versions: 1 2 3 4 5 6 7 8 9 10 11 12 13 14 15 16 17 18 19 20 21 22 23 24 25 26 27 28 29 30 31 32 33 34 35 36 37 38 39 40 41 42 43 44 45 46 47 48 49 50

407
ASUS43 KLMK 061610
RWRKY
KENTUCKY REGIONAL WEATHER ROUNDUP
NATIONAL WEATHER SERVICE LOUISVILLE KY
1100 AM EST TUE DEC 06 2016

NOTE "FAIR" INDICATES FEW OR NO CLOUDS BELOW 12,000 FEET
WITH NO SIGNIFICANT WEATHER AND/OR OBSTRUCTIONS TO VISIBILITY.

KYZ001>023-026-027-061>063-070>075-061700-
WESTERN AND SOUTH CENTRAL KENTUCKY

CITY           SKY/WX    TMP DP  RH WIND       PRES   REMARKS
PADUCAH        CLOUDY    44  39  82 NW10      29.79R
HENDERSON      CLOUDY    43  39  87 NW8       29.75R
OWENSBORO      CLOUDY    44  42  93 NW6       29.74R FOG
HOPKINSVILLE   DRIZZLE   44  44 100 NW7       29.72R
BOWLING GREEN  LGT RAIN  47  45  93 VRB3      29.69S FOG
GLASGOW        RAIN     N/A N/A N/A CALM      29.68S
$$

KYZ024-025-028>034-038-045-046-053-061700-
NORTH CENTRAL KENTUCKY

CITY           SKY/WX    TMP DP  RH WIND       PRES   REMARKS
LOUISVILLE/SDF LGT RAIN  44  41  89 NW7       29.69R FOG
LOUISVILLE/LOU LGT RAIN  43  41  93 NW8       29.70R
FORT KNOX      LGT RAIN  42  42  99 NW7       29.68R
$$

KYZ035>037-039>044-047>052-055>060-089>105-061700-
NORTHEAST KENTUCKY

CITY           SKY/WX    TMP DP  RH WIND       PRES   REMARKS
LEXINGTON      LGT RAIN  45  43  93 NW6       29.67R FOG
COVINGTON      LGT RAIN  41  40  96 N8        29.66S VSB 1
FRANKFORT      RAIN      45  42  89 SE3       29.64F FOG
$$

KYZ054-064>069-076>088-106>120-061700-
SOUTHEAST KENTUCKY

CITY           SKY/WX    TMP DP  RH WIND       PRES   REMARKS
JACKSON        LGT RAIN  51  50  96 CALM      29.61F
LONDON         LGT RAIN  53  49  86 S9        29.63R
SOMERSET       DRIZZLE   52  52 100 W3        29.66R
MIDDLESBORO    RAIN      50  47  90 S5        29.69F
MONTICELLO     RAIN      56  55  97 W9        29.67R
$$





USA.gov is the U.S. government's official web portal to all federal, state and local government web resources and services.